OBJECT BS, 43822

Orbit data source: Space-Track

You're viewing an Uncataloged Satellite

Recently launched and/or uncataloged satellites may have evolving metadata. Metadata may include but not limited to: Owner, Maufacturer, Bus, Motor, and Mission.

OBJECT BS, 43822 is a satellite in SSO that was launched on Mon, 03 Dec 2018 UTC via an FALCON 9 launch vehicle from the Air Force Western Test Range (AFWTR). Unknown objects in Earth's orbit typically refer to objects detected orbiting the Earth but have not yet been identified or cataloged. These objects could be anything from previously untracked satellites, spent rocket stages, debris from satellite collisions, or even natural meteoroids temporarily captured by Earth's gravity.

Loading next visibility...
Identifier
43822, 2018-099BS
Orbit
SSO
Last TLE update
9 hours ago
Origin
Flag of TBDKRAU (TBD)
Manufacturer
Korea AeU
Mission
Amateur Technology
Bus & Motor
CUBESAT 2U, Unknown motor
Mass
2 kg wet, 2 kg dry
Launch date (UTC)
2018-12-03 (7 years ago)
Launch vehicle
FALCON 9
Launch site
Air Force Western Test Range (AFWTR)
Object type
Unknown
Shape & HBR
Box, 0.5 m
Radar Cross Section
0.025 m², Small (<0.1 m²)

Expand to show TLE details & history

TLE from 9 hours ago
0 OBJECT BS
1 43822U 18099BS  25181.88413172  .00003641  00000-0  22680-3 0  9992
2 43822  97.4838 234.9552 0010141 119.6922 240.5319 15.10148037353125
Epoch: 2025-06-30T21:13Z
TLE epoch observation values (Epoch: 2025-06-30T21:13:08.98Z)
Latitude
0.00004°
Longitude
-2.51976°
Altitude
542.278 km
Speed
7.589 km/s
True Right ascension
15h 39m 49s
True Declination
0° 00' 00"
Sunlit
Object was in full shadow at epoch
Visualization orbit readout
Latitude
9.55731°
Longitude
179.09489°
Altitude
533.742 km
Speed
7.599 km/s
Apparent Right ascension
04h 30m 44s
Apparent Declination
-14° 24' 21"
Sunlit
Object is in daylight
Visualization observer readout
Local Sidereal Time
17:32:59
Azimuth
32.497° NE
Elevation
-61.078°
Doppler factor
1
Orbital elements
Apogee altitude
539.739 km
Perigee altitude
525.722 km
Semi-major axis
6,910.867 km
Eccentricity
0.00101
Inclination
97.4838°
RAAN
234.9552°
Arg. of periapsis
119.6922°
True anomaly
Unknown
Mean anomaly
240.5319°
Eccentric anomaly
Unknown
Mean motion
3.77785 °/min
Orbital period
95.29 mins
BSTAR
0.0002268
Loading maneuver chart data...
Loading SW <> Apogee altitude chart data...
Loading historical data...
Loading historical data...
Loading historical data...
Loading historical data...
Loading historical data...
Loading historical data...
Loading historical data...

OBJECT BS Visibility forecast

Observer location: undefined°, undefined°

Span
Click to sort rows by Start time (UTC) header in descending order
Start Az.
Max El. time (UTC)
Max El. Az.
Max El.
End time (UTC)
End Az.
6 mins2025-07-01 16:52:16.686Z349.209° N2025-07-01 16:54:16.686Z306.715° NW32.003°2025-07-01 16:58:16.686Z216.814° SW
6 mins2025-07-02 03:34:16.686Z164.901° S2025-07-02 03:36:16.686Z156.588° SSE43.07°2025-07-02 03:40:16.686Z349.016° N
|